Flight Track Log - Related Links

Times and Time Zones

All times are in EDT time to prevent confusion due to time zone crossing. See the RPA3228 flight status page for this flight to view local times or setup timezone preferences in your user account.

Time Position Orientation Groundspeed Altitude Reporting Facility
EDT Latitude Longitude Course Direction KTS MPH feet Rate Location/Type
Thu 10:21:12 AM 38.7833 -77.0333 333° Northwest 202 232 2,700  Level Potomac TRACON
Thu 10:22:00 AM 39.0861 -77.1597 339° North  Level FlightAware
Thu 10:22:06 AM 38.7500 -77.0833 229° Southwest 251 289 4,900  Level Potomac TRACON
Thu 10:22:49 AM 38.7489 -77.1514 269° West 257 296 5,100 2,097 Climbing Washington Center
Thu 10:23:00 AM 39.1679 -77.2051 330° Northwest  Level FlightAware
Thu 10:23:49 AM 38.8064 -77.2194 317° Northwest 281 323 8,500  Level Washington Center
Thu 10:24:00 AM 39.2529 -77.2442 337° Northwest  Level FlightAware
Thu 10:24:50 AM 38.8722 -77.2819 324° Northwest 304 350 11,300  Level Washington Center
Thu 10:25:00 AM 39.3363 -77.2905 337° Northwest  Level FlightAware
Thu 10:25:12 AM 38.9000 -77.3000 333° Northwest 315 362 12,200  Level Potomac TRACON
Thu 10:26:00 AM 39.4170 -77.3391 333° Northwest  Level FlightAware
Thu 10:26:06 AM 38.9667 -77.3667 322° Northwest 350 403 14,700  Level Potomac TRACON
Thu 10:27:06 AM 39.0667 -77.4167 339° North 369 425 17,000 1,211 Climbing Potomac TRACON
Thu 10:28:00 AM 39.1500 -77.4333 351° North 364 419 17,000 622 Level Potomac TRACON
Thu 10:29:50 AM 39.3453 -77.4381 359° North 368 423 18,700 1,429 Climbing Washington Center
Thu 10:30:48 AM 39.4514 -77.4433 358° North 368 423 21,000 2,039 Climbing Washington Center
Thu 10:33:16 AM 39.7261 -77.4547 358° North 419 482 25,700 1,442 Climbing New Center
Thu 10:34:16 AM 39.8450 -77.4525 North 424 488 26,000 149 Climbing New Center
Thu 10:35:17 AM 39.9675 -77.4642 356° North 429 494 26,000  Level New Center
Thu 10:36:15 AM 40.0819 -77.5050 345° North 429 494 26,000  Level New Center
Thu 10:37:16 AM 40.1981 -77.5489 344° North 429 494 26,000  Level New Center
Thu 10:38:16 AM 40.3267 -77.5997 343° North 436 502 26,000  Level New Center
Thu 10:39:17 AM 40.4408 -77.6436 344° North 431 496 26,000  Level New Center
Thu 10:40:17 AM 40.5569 -77.6881 344° North 431 496 26,000  Level New Center
Thu 10:42:35 AM 40.8169 -77.7900 343° North 439 505 26,000  Level Cleveland Center
Thu 10:43:36 AM 40.9306 -77.8375 342° North 439 505 26,000  Level Cleveland Center
Thu 10:44:36 AM 41.0569 -77.8872 343° North 428 493 26,000  Level Cleveland Center
Thu 10:45:36 AM 41.1725 -77.9319 344° North 428 493 26,000  Level Cleveland Center
Thu 10:46:36 AM 41.2842 -77.9744 344° North 428 493 26,000  Level Cleveland Center
Thu 10:47:36 AM 41.3997 -78.0225 343° North 428 493 26,000  Level Cleveland Center
Thu 10:48:35 AM 41.5192 -78.0456 352° North 428 493 26,000  Level Cleveland Center
Thu 10:49:36 AM 41.6425 -78.0656 353° North 433 498 26,000 -50 Level Cleveland Center
Thu 10:50:36 AM 41.7725 -78.0883 353° North 448 516 25,900 -1,250 Descending Cleveland Center
Thu 10:51:36 AM 41.8958 -78.1117 352° North 453 521 23,500 -2,319 Descending Cleveland Center
Thu 10:52:35 AM 42.0069 -78.1325 352° North 453 521 21,300 -2,200 Descending Cleveland Center
Thu 10:53:36 AM 42.1181 -78.1731 345° North 428 493 19,100 -2,281 Descending Cleveland Center
Thu 10:54:36 AM 42.2194 -78.2308 337° Northwest 403 464 16,700 -2,400 Descending Cleveland Center
Thu 10:55:36 AM 42.3186 -78.2889 337° Northwest 391 450 14,300 -2,319 Descending Cleveland Center
Thu 10:56:35 AM 42.4114 -78.3417 337° Northwest 371 427 12,100 -2,150 Descending Cleveland Center
Thu 10:57:36 AM 42.5036 -78.3639 350° North 351 404 10,000 -1,884 Descending Cleveland Center
Thu 10:58:36 AM 42.5892 -78.3722 356° North 326 375 8,300 -1,750 Descending Cleveland Center
Thu 10:59:36 AM 42.6686 -78.3833 354° North 300 345 6,500 -1,650 Descending Cleveland Center
Thu 11:00:36 AM 42.7544 -78.4003 352° North 289 333 5,000 -750 Descending Cleveland Center
Thu 11:01:36 AM 42.8317 -78.4117 354° North 279 321 5,000  Level Cleveland Center
Thu 11:02:36 AM 42.9006 -78.4206 355° North 274 315 5,000  Level Cleveland Center
Thu 11:03:36 AM 42.9736 -78.4294 355° North 274 315 5,000  Level Cleveland Center
Thu 11:04:36 AM 43.0467 -78.4297 360° North 256 295 5,000 -959 Level Cleveland Center
Thu 11:06:25 AM 43.0833 -78.5333 296° West 195 224 2,300 -994 Descending Buffalo TRACON
Thu 11:07:19 AM 43.0667 -78.5667 236° Southwest 164 189 2,300 50 Level Buffalo TRACON
Thu 11:08:25 AM 43.0333 -78.6167 228° Southwest 162 186 2,400 91 Climbing Buffalo TRACON

Login

Don't have an account? Register now (free) for customized features, flight alerts, and more!